Location: Oriwa
(40.7500°S, 175.3333°E)
Time: 11:57:41
(UTC+00:00)

SL-16 R/B - Pass Details

Date: 03 February 2023
Orbit: 985 x 1006 km, 99.6° (Epoch: 30 March)

Event Time Altitude Azimuth Distance (km) Brightness Sun altitude
Rises 16:53:59 0° 179° (S) 3,751 6.0 -6.8°
Reaches altitude 10° 16:57:04 10° 193° (SSW) 2,791 5.1 -6.3°
Maximum altitude 17:01:36 22° 240° (WSW) 2,053 3.9 -5.5°
Drops below altitude 10° 17:06:07 10° 287° (WNW) 2,761 4.2 -4.7°
Enters shadow 17:07:35 - 295° (WNW) 3,190 4.5 -4.5°
